15min,AgWx,beryljct,423,06AUG2020:00:00:00,61.5,12.86,65.8,66.8,66.6,67.4,65.4,31,35,27,0.649,34.7,37.1,31.8,5.261,5.8,200,11,7.4,0.00050,0.00072,70.5,72.0,9,0,.,.,13.47,0.00,0.00
15min,AgWx,beryljct,423,06AUG2020:00:15:00,62.3,12.86,61.6,62.4,63.8,66.6,61.5,29,32,26,0.576,30.9,33.5,29.3,3.486,4.6,180,5.4,6.0,0.00036,0.00054,70.2,71.9,9,0,.,.,13.47,0.00,0.00
15min,AgWx,beryljct,423,06AUG2020:00:30:00,62.1,12.86,61.7,62.2,63.0,64.1,62.1,29,32,27,0.588,30.0,31.7,28.9,4.779,4.8,176,7.7,5.7,0.00038,0.00056,70.0,71.9,9,0,.,.,13.47,0.00,0.00
15min,AgWx,beryljct,423,06AUG2020:00:45:00,61.3,12.84,64.5,62.6,59.9,63.2,56.2,34,44,28,0.548,31.4,34.6,28.4,4.143,4.0,182,6.9,5.6,0.00024,0.00037,69.7,71.8,9,0,.,.,13.47,0.00,0.00
15min,AgWx,beryljct,423,06AUG2020:01:00:00,60.6,12.83,59.9,62.7,62.8,63.8,60.9,29,33,27,0.593,30.5,32.3,29.2,3.442,3.8,175,6.1,5.0,0.00026,0.00041,69.4,71.7,9,0,.,.,13.47,0.00,0.00
15min,AgWx,beryljct,423,06AUG2020:01:15:00,59.9,12.83,63.8,62.8,60.6,62.8,58.8,33,38,28,0.550,31.0,33.8,28.9,4.143,4.0,177,7.6,5.0,0.00025,0.00038,69.2,71.6,9,0,.,.,13.47,0.00,0.00
15min,AgWx,beryljct,423,06AUG2020:01:30:00,59.0,12.83,61.9,58.1,59.2,63.5,56.6,37,44,28,0.609,32.5,35.2,29.4,3.288,3.3,175,4.8,4.3,0.00014,0.00024,68.9,71.5,9,0,.,.,13.47,0.00,0.00
15min,AgWx,beryljct,423,06AUG2020:01:45:00,58.0,12.82,57.9,56.6,59.0,61.6,56.0,37,47,31,0.673,32.7,36.5,30.2,4.341,3.3,173,5.7,4.3,0.00013,0.00023,68.7,71.4,9,0,.,.,13.47,0.00,0.00
15min,AgWx,beryljct,423,06AUG2020:02:00:00,57.6,12.82,60.3,62.6,61.3,63.8,57.0,34,42,29,0.608,32.4,34.8,30.8,3.508,4.3,174,5.8,5.3,0.00028,0.00042,68.4,71.3,9,0,.,.,13.47,0.00,0.00
15min,AgWx,beryljct,423,06AUG2020:02:15:00,57.7,12.81,61.6,62.4,61.7,62.7,60.4,33,36,31,0.608,32.3,33.5,31.6,3.244,3.8,178,3.9,4.6,0.00023,0.00037,68.2,71.2,9,0,.,.,13.47,0.00,0.00
15min,AgWx,beryljct,423,06AUG2020:02:30:00,57.8,12.8,63.9,63.5,61.6,63.5,60.5,35,39,30,0.594,33.3,35.8,31.2,4.231,4.2,190,11,5.3,0.00027,0.00041,67.9,71.1,9,0,.,.,13.47,0.00,0.00
15min,AgWx,beryljct,423,06AUG2020:02:45:00,58.6,12.79,64.8,65.2,64.6,65.2,63.5,30,33,28,0.668,32.6,34.2,30.9,5.042,5.6,193,9.8,7.2,0.00047,0.00067,67.7,71.0,9,0,.,.,13.46,0.00,0.00
15min,AgWx,beryljct,423,06AUG2020:03:00:00,59.7,12.79,62.3,62.6,64.7,66.1,62.6,32,37,29,0.708,34.5,36.0,32.9,3.529,4.4,201,4.6,5.9,0.00033,0.00050,67.5,70.9,9,0,.,.,13.47,0.00,0.00
15min,AgWx,beryljct,423,06AUG2020:03:15:00,59.7,12.78,51.4,51.5,57.5,63.1,51.5,47,59,33,0.758,36.6,38.2,33.8,5.831,4.6,153,28,6.7,0.00021,0.00032,67.2,70.8,9,0,.,.,13.47,0.00,0.00
15min,AgWx,beryljct,423,06AUG2020:03:30:00,57.5,12.78,46.7,48.0,49.5,51.5,48.0,65,73,59,0.831,38.2,39.8,37.1,0,3.9,157,18,6.1,0.00002,0.00005,67.0,70.7,10,0,.,.,13.47,0.00,0.00
15min,AgWx,beryljct,423,06AUG2020:03:45:00,55.2,12.74,48.4,49.2,48.4,49.8,47.3,67,76,54,0.695,37.9,40.0,33.5,1.184,1.7,291,38,2.9,-0.00014,-0.00018,66.8,70.6,10,0,.,.,13.47,0.00,0.00
15min,AgWx,beryljct,423,06AUG2020:04:00:00,53.6,12.76,49.1,50.2,49.3,50.5,47.6,54,66,47,0.651,33.5,36.8,31.2,1.644,2.0,308,8.7,3.9,-0.00009,-0.00010,66.6,70.5,9,0,.,.,13.47,0.00,0.00
15min,AgWx,beryljct,423,06AUG2020:04:15:00,52.4,12.73,47.5,47.6,49.1,51.5,47.6,58,70,45,0.780,35.1,38.1,30.7,2.302,3.0,287,14,4.8,-0.00002,0.00001,66.4,70.4,10,0,.,.,13.47,0.00,0.00
15min,AgWx,beryljct,423,06AUG2020:04:30:00,51.5,12.73,47.2,48.4,49.6,51.3,47.4,62,70,58,0.754,37.3,38.4,35.1,3.858,1.7,130,78,5.6,-0.00014,-0.00017,66.2,70.3,9,0,.,.,13.47,0.00,0.00
15min,AgWx,beryljct,423,06AUG2020:04:45:00,50.5,12.72,44.3,44.4,46.3,48.2,44.3,72,79,63,0.785,37.8,39.9,35.8,0,1.9,24,45,3.9,-0.00014,-0.00017,66.0,70.2,9,0,.,.,13.47,0.00,0.00
15min,AgWx,beryljct,423,06AUG2020:05:00:00,49.5,12.72,45.6,45.7,45.4,46.3,44.3,69,80,58,0.651,35.8,38.6,32.2,0,1.0,338,10,2.3,0.00008,0.00013,65.8,70.1,9,0,.,.,13.48,0.00,0.00
15min,AgWx,beryljct,423,06AUG2020:05:15:00,48.7,12.71,45.7,45.6,45.5,46.0,45.1,59,66,48,0.503,31.8,34.8,27.2,3.551,1.3,325,11,3.6,0.00013,0.00022,65.5,70.0,10,0,.,.,13.48,0.00,0.00
15min,AgWx,beryljct,423,06AUG2020:05:30:00,48.1,12.7,47.0,46.4,45.5,46.6,44.4,52,57,48,0.560,29.0,31.3,26.8,4.472,3.8,317,6.3,4.8,0.00039,0.00068,65.3,69.9,9,0,.,.,13.48,0.00,0.00
15min,AgWx,beryljct,423,06AUG2020:05:45:00,47.7,12.7,45.1,45.3,46.1,46.9,45.3,56,66,52,0.678,31.3,34.6,29.6,1.622,3.0,305,7.9,4.3,0.00032,0.00054,65.1,69.7,9,3,.,.,13.48,0.00,0.00
15min,AgWx,beryljct,423,06AUG2020:06:00:00,47.5,12.7,46.3,46.3,46.3,46.9,45.1,69,73,67,0.782,36.6,38.3,34.8,0,0.2,300,0.1,1.5,0.00013,0.00015,64.9,69.6,9,19,.,.,13.48,0.00,0.00
15min,AgWx,beryljct,423,06AUG2020:06:15:00,47.8,12.72,46.7,46.5,47.2,48.4,45.9,68,75,61,0.745,37.2,38.5,35.8,1.644,1.1,180,40,2.8,0.00038,0.00046,64.7,69.5,9,53,.,.,13.47,0.00,0.00
15min,AgWx,beryljct,423,06AUG2020:06:30:00,48.9,12.71,47.0,46.6,47.3,48.1,46.5,66,75,58,0.812,36.3,39.2,33.4,1.03,1.4,167,21,3.0,0.00055,0.00067,64.4,69.4,9,93,.,.,13.47,0.00,0.00
15min,AgWx,beryljct,423,06AUG2020:06:45:00,50.3,12.71,49.0,48.3,47.4,48.3,46.7,73,78,68,0.881,39.4,41.8,37.2,1.863,1.9,144,5.0,3.6,0.00073,0.00086,64.3,69.3,9,137,.,.,13.48,0.00,0.00
15min,AgWx,beryljct,423,06AUG2020:07:00:00,52.3,12.7,51.7,51.6,50.7,52.0,48.3,70,80,59,0.939,41.2,45.3,37.9,1.271,1.7,152,12,2.6,0.00099,0.00114,64.1,69.2,9,184,.,.,13.47,0.00,0.00
15min,AgWx,beryljct,423,06AUG2020:07:15:00,54.9,12.73,55.4,54.9,54.2,55.0,51.6,64,74,53,1.043,42.0,46.6,38.2,0,0.3,136,5.0,1.7,0.00123,0.00133,63.9,69.0,9,232,.,.,13.47,0.00,0.00
15min,AgWx,beryljct,423,06AUG2020:07:30:00,57.9,12.75,59.1,57.8,56.1,57.8,55.0,68,74,58,0.952,45.8,48.0,43.3,0,0.9,129,0.1,2.0,0.00157,0.00173,63.7,68.9,9,283,.,.,13.47,0.00,0.00
15min,AgWx,beryljct,423,06AUG2020:07:45:00,60.9,12.83,60.3,60.5,59.7,61.8,58.0,58,65,54,1.015,44.9,48.3,42.1,1.315,0.4,130,0.3,1.4,0.00190,0.00206,63.6,68.8,9,333,.,.,13.47,0.00,0.00
15min,AgWx,beryljct,423,06AUG2020:08:00:00,64.0,12.94,63.5,63.3,61.9,63.3,60.4,49,62,38,0.834,42.2,47.4,36.7,0,0.8,129,1.0,2.0,0.00231,0.00255,63.4,68.7,9,387,.,.,13.46,0.00,0.00
15min,AgWx,beryljct,423,06AUG2020:08:15:00,67.2,13.13,64.0,64.5,64.4,65.5,63.3,45,50,40,1.009,42.8,45.4,39.0,0,0.1,133,5.5,0.9,0.00263,0.00282,63.3,68.6,9,439,.,.,13.46,0.00,0.00
15min,AgWx,beryljct,423,06AUG2020:08:30:00,70.0,13.38,68.0,68.0,66.2,68.1,64.4,49,56,41,1.084,46.4,49.8,42.6,0,0.2,255,18,0.9,0.00300,0.00322,63.2,68.5,9,487,.,.,13.46,0.00,0.00
15min,AgWx,beryljct,423,06AUG2020:08:45:00,72.8,13.57,69.7,69.7,69.3,69.8,68.0,38,46,28,1.043,42.1,47.7,34.3,0,0.3,4.3,11,2.4,0.00341,0.00368,63.2,68.4,9,539,.,.,13.45,0.00,0.00
15min,AgWx,beryljct,423,06AUG2020:09:00:00,75.5,13.67,71.8,71.7,70.8,71.7,69.7,40,47,34,0.924,45.3,49.5,40.5,1.096,0.3,61,4.5,2.0,0.00381,0.00410,63.2,68.3,9,589,.,.,13.44,0.00,0.00
15min,AgWx,beryljct,423,06AUG2020:09:15:00,77.9,14.01,74.0,74.0,72.6,74.0,71.7,41,49,32,1.163,47.3,51.7,41.0,2.521,2.2,72,8.6,3.7,0.00437,0.00495,63.4,68.2,9,637,.,.,13.44,0.00,0.00
15min,AgWx,beryljct,423,06AUG2020:09:30:00,79.8,13.95,75.9,75.7,74.9,75.7,74.0,41,51,32,0.968,49.3,55.2,43.7,4.012,3.3,95,29,5.5,0.00486,0.00562,63.5,68.1,9,680,.,.,13.44,0.00,0.00
15min,AgWx,beryljct,423,06AUG2020:09:45:00,81.2,13.98,76.9,76.3,76.9,78.6,75.6,30,45,22,0.820,43.0,53.6,35.5,10.7,5.8,179,39,10.7,0.00558,0.00682,63.2,68.0,9,722,.,.,13.44,0.00,0.00
15min,AgWx,beryljct,423,06AUG2020:10:00:00,81.4,13.91,77.7,77.2,76.4,77.8,75.3,27,35,20,0.760,39.9,45.8,33.0,11.25,8.6,160,12,13.9,0.00618,0.00788,63.3,67.9,9,766,.,.,13.44,0.00,0.00
15min,AgWx,beryljct,423,06AUG2020:10:15:00,81.7,13.9,78.8,78.3,77.7,79.0,76.5,23,31,18,0.697,37.3,43.3,31.2,10.06,8.5,171,19,12.9,0.00657,0.00837,63.4,67.9,9,804,.,.,13.43,0.00,0.00
15min,AgWx,beryljct,423,06AUG2020:10:30:00,82.2,13.9,79.0,78.7,78.4,79.4,77.4,22,28,18,0.668,36.3,42.0,30.9,8.44,9.1,191,22,14.2,0.00691,0.00885,63.6,67.8,9,837,.,.,13.43,0.00,0.00
15min,AgWx,beryljct,423,06AUG2020:10:45:00,82.6,13.95,80.2,79.4,78.7,80.1,77.7,22,29,16,0.553,36.3,43.6,29.1,9.1,8.9,175,20,15.8,0.00712,0.00906,63.8,67.8,9,872,.,.,13.43,0.00,0.00
15min,AgWx,beryljct,423,06AUG2020:11:00:00,83.1,13.87,78.7,79.8,79.8,80.7,79.3,18,23,14,0.814,32.9,39.3,27.5,6.84,10.3,186,14,16.5,0.00762,0.00988,64.0,67.8,9,901,.,.,13.43,0.00,0.00
15min,AgWx,beryljct,423,06AUG2020:11:15:00,83.5,13.87,79.4,80.2,79.9,80.6,79.0,18,24,14,0.584,32.6,39.3,25.9,12.65,11.3,180,16,16.8,0.00787,0.01028,64.3,67.7,9,926,.,.,13.43,0.00,0.00
15min,AgWx,beryljct,423,06AUG2020:11:30:00,83.7,13.96,76.7,77.6,79.8,80.9,77.6,19,28,14,0.919,33.4,42.4,26.9,10.22,10.5,176,20,18.7,0.00789,0.01018,64.7,67.7,9,946,.,.,13.43,0.00,0.00
15min,AgWx,beryljct,423,06AUG2020:11:45:00,83.2,13.87,77.8,77.8,77.7,78.2,77.4,24,29,19,0.719,37.5,42.6,32.6,11.33,12.4,153,11,21.2,0.00782,0.01017,65.2,67.8,9,960,.,.,13.43,0.00,0.00
15min,AgWx,beryljct,423,06AUG2020:12:00:00,82.9,13.56,80.5,80.4,79.4,81.2,77.5,20,30,15,0.568,34.3,43.7,28.0,13.35,12.9,173,18,18.2,0.00822,0.01080,68.0,67.8,9,976,.,.,13.43,0.00,0.00
15min,AgWx,beryljct,423,06AUG2020:12:15:00,83.6,13.46,81.0,81.0,81.0,82.4,79.9,20,24,15,0.657,35.7,41.9,28.4,8.24,8.7,186,20,19.3,0.00796,0.01002,68.6,67.8,9,985,.,.,13.43,0.00,0.00
15min,AgWx,beryljct,423,06AUG2020:12:30:00,84.3,13.43,79.0,81.2,81.0,81.5,80.2,20,26,13,0.746,35.2,43.2,25.5,5.809,9.8,189,21,20.0,0.00812,0.01033,69.2,67.9,9,990,.,.,13.43,0.00,0.00
15min,AgWx,beryljct,423,06AUG2020:12:45:00,84.5,13.56,81.5,80.1,80.3,81.9,78.3,22,31,14,0.733,37.4,45.4,27.4,4.253,9.7,164,17,17.0,0.00803,0.01017,69.9,67.9,9,992,.,.,13.43,0.00,0.00
15min,AgWx,beryljct,423,06AUG2020:13:00:00,84.4,13.52,78.7,79.5,79.3,81.8,77.8,24,36,16,0.873,39.2,48.8,30.7,9.34,11.4,156,15,17.9,0.00803,0.01030,70.5,68.0,9,989,.,.,13.43,0.00,0.00
15min,AgWx,beryljct,423,06AUG2020:13:15:00,84.3,13.47,78.5,79.3,80.1,81.6,79.3,22,30,15,0.868,37.6,45.4,29.4,11.71,11.6,161,13,20.1,0.00813,0.01051,71.3,68.1,9,983,.,.,13.44,0.00,0.00
15min,AgWx,beryljct,423,06AUG2020:13:30:00,84.5,13.55,81.3,82.9,81.8,83.0,79.0,18,28,14,0.639,33.9,43.3,28.4,8.05,11.5,181,17,16.8,0.00833,0.01085,71.9,68.2,9,975,.,.,13.44,0.00,0.00
15min,AgWx,beryljct,423,06AUG2020:13:45:00,85.1,13.55,80.2,81.0,81.8,83.4,80.1,19,26,13,0.690,34.8,42.4,27.5,17.08,12.3,169,17,19.6,0.00829,0.01088,72.6,68.3,9,958,.,.,13.44,0.00,0.00
15min,AgWx,beryljct,423,06AUG2020:14:00:00,84.8,13.44,83.8,82.3,80.2,82.3,79.3,22,28,16,0.585,37.8,43.8,30.9,13.37,12.7,158,14,20.9,0.00797,0.01048,73.2,68.5,9,939,.,.,13.44,0.00,0.00
15min,AgWx,beryljct,423,06AUG2020:14:15:00,84.9,13.41,82.6,81.9,80.9,82.6,79.4,23,32,15,0.694,39.0,47.0,30.4,17.12,11.0,161,16,17.1,0.00773,0.01001,73.9,68.7,9,920,.,.,13.43,0.00,0.00
15min,AgWx,beryljct,423,06AUG2020:14:30:00,85.1,13.38,82.4,82.9,82.2,83.5,80.9,19,26,15,0.692,36.0,43.6,28.9,8.37,11.3,202,25,20.4,0.00781,0.01027,74.4,68.8,9,897,.,.,13.44,0.00,0.00
15min,AgWx,beryljct,423,06AUG2020:14:45:00,86.0,13.37,83.0,84.0,83.4,84.1,82.7,17,24,13,0.701,33.3,43.0,26.4,13.57,10.5,191,16,17.0,0.00768,0.01009,75.0,69.0,9,873,.,.,13.43,0.00,0.00
15min,AgWx,beryljct,423,06AUG2020:15:00:00,86.7,13.35,82.3,82.0,82.9,83.8,81.5,17,22,13,0.571,33.2,40.1,27.6,16.38,10.7,210,18,18.4,0.00748,0.00988,75.5,69.1,9,844,.,.,13.44,0.01,0.00
15min,AgWx,beryljct,423,06AUG2020:15:15:00,87.0,13.35,82.4,82.1,82.9,84.0,82.0,17,23,13,0.627,32.8,40.5,27.2,13.59,12.3,204,15,19.6,0.00750,0.01014,76.0,69.3,9,812,.,.,13.44,0.00,0.00
15min,AgWx,beryljct,423,06AUG2020:15:30:00,86.8,13.35,81.0,81.7,81.9,82.6,81.1,17,20,15,0.655,32.8,36.1,30.2,8.51,12.4,224,12,17.1,0.00715,0.00977,76.5,69.5,9,767,.,.,13.43,0.00,0.00
15min,AgWx,beryljct,423,06AUG2020:15:45:00,86.6,13.36,81.9,81.5,81.6,82.5,80.8,18,22,14,0.625,33.8,38.6,28.4,8.94,11.6,228,14,19.9,0.00681,0.00925,76.9,69.7,9,742,.,.,13.44,0.00,0.00
15min,AgWx,beryljct,423,06AUG2020:16:00:00,86.5,13.36,83.7,83.3,82.4,83.5,81.2,16,20,12,0.462,31.8,35.9,25.2,16.22,12.8,206,20,18.4,0.00680,0.00946,77.3,69.9,9,699,.,.,13.43,0.00,0.00
15min,AgWx,beryljct,423,06AUG2020:16:15:00,86.5,13.38,82.2,81.2,81.8,83.5,81.2,18,23,12,0.649,33.5,39.5,26.2,11.6,11.9,215,14,19.8,0.00623,0.00870,77.6,70.1,9,637,.,.,13.44,0.01,0.00
15min,AgWx,beryljct,423,06AUG2020:16:30:00,86.2,13.43,82.1,80.9,81.0,82.1,80.1,18,21,13,0.566,33.2,37.5,26.9,8.02,12.2,226,14,23.4,0.00603,0.00850,77.8,70.3,9,610,.,.,13.44,0.00,0.00
15min,AgWx,beryljct,423,06AUG2020:16:45:00,85.9,13.43,83.1,82.6,81.6,82.9,80.5,17,23,13,0.510,32.4,39.7,26.6,16.86,12.1,211,21,20.4,0.00572,0.00817,78.0,70.5,9,559,.,.,13.44,0.00,0.00
15min,AgWx,beryljct,423,06AUG2020:17:00:00,86.0,13.39,81.7,82.2,82.0,82.8,81.4,16,21,13,0.511,31.6,38.8,26.1,15.28,10.7,198,20,15.8,0.00521,0.00748,78.2,70.7,9,506,.,.,13.44,0.00,0.00
15min,AgWx,beryljct,423,06AUG2020:17:15:00,85.7,13.38,81.1,81.6,81.7,82.7,81.2,16,18,13,0.637,30.8,33.7,26.1,6.05,11.1,205,11,18.1,0.00496,0.00728,78.2,70.8,9,457,.,.,13.44,0.00,0.00
15min,AgWx,beryljct,423,06AUG2020:17:30:00,85.1,13.39,80.9,80.5,80.5,81.5,79.9,18,24,14,0.513,33.6,40.5,27.7,14.91,10.6,224,13,16.0,0.00444,0.00655,78.3,71.0,9,412,.,.,13.44,0.00,0.00
15min,AgWx,beryljct,423,06AUG2020:17:45:00,84.4,13.39,81.1,80.6,80.4,81.1,79.7,18,21,15,0.600,32.7,36.0,29.0,11.77,10.6,216,12,17.4,0.00408,0.00620,78.3,71.2,9,352,.,.,13.44,0.00,0.00
15min,AgWx,beryljct,423,06AUG2020:18:00:00,83.9,13.21,80.4,80.3,80.4,81.4,79.1,18,22,15,0.606,32.6,36.7,29.2,11.64,10.8,209,13,19.1,0.00377,0.00589,78.2,71.4,9,300,.,.,13.44,0.00,0.00
15min,AgWx,beryljct,423,06AUG2020:18:15:00,83.3,13.12,77.9,79.1,79.6,81.1,78.7,19,22,15,0.689,33.2,36.7,29.0,7.19,9.1,213,12,15.3,0.00309,0.00489,78.1,71.5,9,251,.,.,13.44,0.00,0.00
15min,AgWx,beryljct,423,06AUG2020:18:30:00,82.4,13.06,79.9,78.3,78.0,78.9,77.0,21,24,18,0.614,35.0,37.9,31.5,9.43,6.9,222,13,9.9,0.00222,0.00357,78.0,71.7,9,202,.,.,13.44,0.00,0.00
15min,AgWx,beryljct,423,06AUG2020:18:45:00,81.7,13.03,78.2,78.7,79.3,80.0,78.5,17,18,15,0.576,30.0,32.9,27.6,8.46,10.5,209,13,16.7,0.00175,0.00228,77.8,71.8,9,156,.,.,13.44,0.00,0.00
15min,AgWx,beryljct,423,06AUG2020:19:00:00,80.9,13.03,77.6,77.4,77.9,79.3,76.3,18,21,15,0.562,30.6,33.3,27.3,7.848,8.2,223,9.5,13.1,0.00138,0.00186,77.5,71.9,9,113,.,.,13.44,0.00,0.00
15min,AgWx,beryljct,423,06AUG2020:19:15:00,79.9,13.01,75.5,76.6,77.3,77.8,76.6,18,20,17,0.614,30.9,32.7,29.6,6.094,7.9,217,10,12.0,0.00122,0.00166,77.2,72.0,9,70,.,.,13.44,0.00,0.00
15min,AgWx,beryljct,423,06AUG2020:19:30:00,78.3,13,72.3,73.4,74.6,76.4,73.3,21,22,20,0.617,32.5,34.0,31.1,4.954,6.1,230,5.5,7.9,0.00082,0.00117,77.0,72.1,9,31,.,.,13.44,0.00,0.00
15min,AgWx,beryljct,423,06AUG2020:19:45:00,76.6,12.97,71.8,72.3,74.3,75.1,72.3,21,24,19,0.648,31.6,33.8,29.5,4.538,6.7,228,9.4,10.0,0.00083,0.00117,76.7,72.3,9,5,.,.,13.45,0.01,0.00
15min,AgWx,beryljct,423,06AUG2020:20:00:00,74.6,12.97,70.1,70.2,72.2,75.0,69.9,24,29,17,0.656,33.0,36.4,26.7,6.489,5.6,245,6.8,7.0,0.00061,0.00090,76.4,72.3,10,1,.,.,13.45,0.00,0.00
15min,AgWx,beryljct,423,06AUG2020:20:15:00,72.9,12.97,71.3,71.4,71.1,71.7,70.1,25,27,24,0.657,33.3,34.3,32.1,5.546,6.0,225,5.3,7.3,0.00064,0.00092,76.0,72.4,9,0,.,.,13.45,0.00,0.00
15min,AgWx,beryljct,423,06AUG2020:20:30:00,71.6,12.96,70.6,70.0,70.4,71.4,69.9,26,28,25,0.637,34.1,35.0,33.1,7.629,6.1,244,4.4,7.9,0.00062,0.00089,75.7,72.4,9,0,.,.,13.45,0.00,0.00
15min,AgWx,beryljct,423,06AUG2020:20:45:00,70.7,12.96,70.3,70.7,70.5,71.2,69.9,25,26,23,0.633,32.7,33.4,31.9,5.875,6.3,244,5.8,8.7,0.00067,0.00095,75.3,72.5,9,0,.,.,13.45,0.00,0.00
15min,AgWx,beryljct,423,06AUG2020:21:00:00,70.0,12.95,67.5,66.8,69.8,71.0,66.6,27,34,24,0.721,33.9,37.5,32.1,3.223,5.0,231,8.6,7.4,0.00049,0.00073,75.0,72.5,9,0,.,.,13.45,0.00,0.00
15min,AgWx,beryljct,423,06AUG2020:21:15:00,68.6,12.95,62.9,63.2,65.5,69.4,63.2,35,42,26,0.821,37.3,40.8,33.0,3.398,2.8,195,13,4.1,0.00010,0.00020,74.7,72.6,9,0,.,.,13.45,0.00,0.00
15min,AgWx,beryljct,423,06AUG2020:21:30:00,67.0,12.95,61.0,61.7,64.8,68.4,61.2,35,48,25,0.782,36.3,41.7,30.9,0.767,3.4,226,15,5.5,0.00019,0.00032,74.3,72.6,9,0,.,.,13.45,0.00,0.00
15min,AgWx,beryljct,423,06AUG2020:21:45:00,65.0,12.93,60.2,58.7,60.2,61.7,57.0,40,51,33,0.677,36.0,39.1,31.6,3.529,2.4,176,27,5.3,0.00000,0.00005,74.0,72.6,9,0,.,.,13.46,0.01,0.00
15min,AgWx,beryljct,423,06AUG2020:22:00:00,63.1,12.93,62.3,61.6,59.9,61.6,57.6,31,44,25,0.474,28.9,36.2,25.7,4.187,4.5,184,3.8,5.6,0.00031,0.00046,73.6,72.6,9,0,.,.,13.46,0.00,0.00
15min,AgWx,beryljct,423,06AUG2020:22:15:00,61.7,12.92,57.5,58.9,58.6,61.7,56.3,37,48,26,0.553,32.0,37.1,26.0,2.806,3.3,178,31,4.9,0.00013,0.00023,73.3,72.5,9,0,.,.,13.46,0.00,0.00
15min,AgWx,beryljct,423,06AUG2020:22:30:00,60.2,12.9,56.8,56.6,57.3,58.8,56.4,39,44,32,0.577,32.4,34.7,28.3,4.121,3.1,169,8.1,4.3,0.00009,0.00017,73.0,72.5,10,0,.,.,13.47,0.00,0.00
15min,AgWx,beryljct,423,06AUG2020:22:45:00,58.9,12.91,56.2,55.4,54.1,56.6,51.6,44,57,34,0.501,32.4,37.1,27.2,3.42,2.7,192,18,4.1,0.00002,0.00007,72.7,72.5,9,0,.,.,13.47,0.00,0.00
15min,AgWx,beryljct,423,06AUG2020:23:00:00,57.6,12.89,51.5,51.7,53.6,55.9,51.7,38,44,32,0.571,28.5,30.4,26.0,4.187,3.8,181,7.6,5.0,0.00016,0.00026,72.3,72.4,9,0,.,.,13.46,0.00,0.00
15min,AgWx,beryljct,423,06AUG2020:23:15:00,56.6,12.89,54.7,55.6,53.2,55.8,51.5,37,48,27,0.443,27.0,32.9,22.0,2.718,3.9,189,1.5,4.8,0.00018,0.00028,72.0,72.4,9,0,.,.,13.47,0.01,0.00
15min,AgWx,beryljct,423,06AUG2020:23:30:00,55.8,12.89,55.4,54.4,52.2,55.4,48.6,46,64,30,0.483,31.2,37.1,24.6,4.669,3.8,171,17,5.9,0.00012,0.00020,71.6,72.3,9,0,.,.,13.47,0.00,0.00
15min,AgWx,bigpiney,439,06AUG2020:00:00:00,67.3,12.7,66.9,66.1,65.2,66.1,63.8,38,41,34,0.735,39.2,40.1,36.7,16.95,5.7,219,26,17.1,0.00055,0.00077,55.7,52.9,48,0,0,0.0,8.18,0.00,0.00
15min,AgWx,bigpiney,439,06AUG2020:00:15:00,67.2,12.69,66.7,66.8,67.5,68.2,66.2,32,34,31,0.748,36.8,37.3,36.4,11.57,13.1,172,7.4,19.8,0.00110,0.00136,55.7,53.0,48,0,0,0.0,8.18,0.00,0.00
15min,AgWx,bigpiney,439,06AUG2020:00:30:00,67.2,12.68,64.3,64.8,65.5,66.9,64.7,36,37,33,0.758,37.5,37.9,36.8,7.673,8.3,180,8.3,12.2,0.00078,0.00102,55.7,52.9,48,0,0,0.0,8.18,0.00,0.00
15min,AgWx,bigpiney,439,06AUG2020:00:45:00,66.9,12.68,65.4,65.6,65.2,66.0,64.7,35,36,34,0.750,37.1,37.5,36.7,4.297,7.1,161,15,8.9,0.00070,0.00094,55.7,52.9,48,0,0,0.0,8.18,0.00,0.00
15min,AgWx,bigpiney,439,06AUG2020:01:00:00,66.6,12.67,63.8,64.0,64.9,65.7,63.9,37,39,35,0.786,37.8,38.9,37.1,3.398,3.7,174,30,5.3,0.00040,0.00059,55.6,53.0,48,0,0,0.0,8.18,0.00,0.00
15min,AgWx,bigpiney,439,06AUG2020:01:15:00,66.2,12.65,61.6,62.1,62.6,64.0,61.6,43,46,39,0.858,39.9,40.9,38.4,6.138,3.8,232,12,6.1,0.00034,0.00050,55.6,53.0,48,0,0,0.0,8.18,0.00,0.00
15min,AgWx,bigpiney,439,06AUG2020:01:30:00,65.7,12.65,68.7,67.6,64.0,67.6,61.6,41,46,34,0.788,39.5,40.8,37.8,28.43,9.6,220,17,28.4,0.00074,0.00095,55.6,53.0,48,0,0,0.0,8.18,0.00,0.00
15min,AgWx,bigpiney,439,06AUG2020:01:45:00,66.2,12.64,67.5,67.5,68.1,68.9,67.3,36,39,33,0.857,40.1,41.8,38.4,18.96,17.0,212,17,26.1,0.00119,0.00143,55.5,53.0,48,0,0,0.0,8.18,0.00,0.00
15min,AgWx,bigpiney,439,06AUG2020:02:00:00,66.1,12.64,63.8,63.9,65.9,68.1,63.9,43,49,36,0.951,42.6,44.5,39.7,14.01,17.7,236,24,32.3,0.00102,0.00121,55.5,53.0,48,0,0,0.0,8.18,0.00,0.00
15min,AgWx,bigpiney,439,06AUG2020:02:15:00,65.5,12.62,65.8,66.4,64.9,66.5,63.8,43,48,38,0.896,42.1,44.1,39.8,13.79,13.4,249,14,19.5,0.00087,0.00106,55.5,53.0,48,0,0,0.0,8.18,0.00,0.00
15min,AgWx,bigpiney,439,06AUG2020:02:30:00,65.6,12.62,62.5,62.8,64.4,66.4,62.8,47,50,41,0.983,43.5,44.3,41.8,12.78,14.7,256,9.8,20.5,0.00084,0.00102,55.5,53.0,48,0,0,0.0,8.18,0.00,0.00
15min,AgWx,bigpiney,439,06AUG2020:02:45:00,65.5,12.62,61.3,61.3,61.8,62.8,61.3,54,56,50,1.033,45.1,45.6,44.1,17.82,13.5,268,10,18.3,0.00065,0.00079,55.4,53.1,48,0,0,0.0,8.18,0.00,0.00
15min,AgWx,bigpiney,439,06AUG2020:03:00:00,65.1,12.6,62.0,62.1,61.6,62.1,61.1,54,57,52,0.983,44.9,45.7,44.1,14.14,15.3,270,10,21.8,0.00068,0.00081,55.4,53.1,48,0,0,0.0,8.18,0.00,0.00
15min,AgWx,bigpiney,439,06AUG2020:03:15:00,64.7,12.59,63.8,63.7,61.8,63.7,60.2,51,59,42,0.910,43.5,45.9,40.0,22.43,15.4,257,10,22.4,0.00073,0.00087,55.4,53.0,48,0,0,0.0,8.18,0.00,0.00
15min,AgWx,bigpiney,439,06AUG2020:03:30:00,63.7,12.58,58.3,58.7,61.0,63.7,58.7,56,64,45,1.085,44.9,46.7,42.0,17.23,15.6,245,19,29.4,0.00066,0.00079,55.3,53.1,48,0,0,0.0,8.18,0.00,0.00
15min,AgWx,bigpiney,439,06AUG2020:03:45:00,62.0,12.57,63.1,63.4,63.7,65.7,58.6,45,64,39,0.907,41.6,46.7,39.5,3.442,7.5,72,72,22.6,0.00060,0.00080,55.3,53.0,48,0,1,0.0,8.18,0.00,0.00
15min,AgWx,bigpiney,439,06AUG2020:04:00:00,61.3,12.56,60.8,61.4,61.0,63.4,59.8,54,59,46,0.968,44.4,45.7,42.4,0.482,2.1,113,81,5.3,0.00011,0.00019,55.3,53.0,48,0,0,0.0,8.18,0.00,0.00
15min,AgWx,bigpiney,439,06AUG2020:04:15:00,61.2,12.55,60.7,60.2,61.7,62.7,60.2,52,57,47,1.022,43.7,45.2,42.1,4.406,4.0,237,42,8.2,0.00029,0.00042,55.3,53.0,48,0,0,0.0,8.18,0.00,0.00
15min,AgWx,bigpiney,439,06AUG2020:04:30:00,61.2,12.55,58.3,58.7,58.9,60.4,58.1,63,67,56,1.074,46.5,47.4,44.6,5.48,4.8,323,34,7.2,0.00023,0.00033,55.2,53.0,48,0,0,0.0,8.18,0.00,0.00
15min,AgWx,bigpiney,439,06AUG2020:04:45:00,61.1,12.55,56.3,55.8,56.6,58.6,55.7,72,77,64,1.148,47.7,48.8,46.5,8.99,7.7,325,37,10.5,0.00023,0.00031,55.2,53.1,48,0,0,0.0,8.18,0.00,0.00
15min,AgWx,bigpiney,439,06AUG2020:05:00:00,60.8,12.53,56.4,56.5,56.4,56.6,55.9,72,75,70,1.105,47.6,48.2,47.1,6.072,7.6,305,13,10.7,0.00023,0.00030,55.2,53.1,48,0,0,0.0,8.18,0.00,0.00
15min,AgWx,bigpiney,439,06AUG2020:05:15:00,60.4,12.52,55.9,56.0,56.2,56.5,56.0,71,72,70,1.090,47.0,47.4,46.7,5.327,6.3,312,11,8.6,0.00021,0.00028,55.1,52.9,48,0,0,0.0,8.18,0.00,0.00
15min,AgWx,bigpiney,439,06AUG2020:05:30:00,60.0,12.52,57.1,56.9,56.4,57.0,55.9,69,71,66,1.050,46.3,46.8,45.8,8.29,6.9,307,9.4,9.7,0.00024,0.00032,55.1,53.0,48,1,0,0.0,8.18,0.00,0.00
15min,AgWx,bigpiney,439,06AUG2020:05:45:00,59.9,12.53,56.5,56.6,56.8,57.0,56.4,67,68,66,1.056,45.9,46.2,45.6,6.708,7.4,317,10,9.4,0.00058,0.00100,55.1,53.0,48,5,0,0.0,8.18,0.00,0.00
15min,AgWx,bigpiney,439,06AUG2020:06:00:00,59.7,12.55,56.9,57.0,56.7,57.1,56.3,66,68,65,1.037,45.6,46.1,45.3,7.585,7.3,304,9.8,10.0,0.00049,0.00090,55.0,53.0,48,27,0,0.0,8.18,0.00,0.00
15min,AgWx,bigpiney,439,06AUG2020:06:15:00,59.6,12.61,57.4,57.5,57.1,57.5,56.8,65,66,64,1.039,45.5,45.7,45.3,7.651,8.0,307,7.8,10.1,0.00066,0.00113,55.0,53.0,48,50,0,0.0,8.18,0.00,0.00
15min,AgWx,bigpiney,439,06AUG2020:06:30:00,59.7,12.7,58.9,58.6,58.0,58.6,57.5,63,64,62,1.042,45.5,45.9,45.2,11.88,9.5,308,9.7,12.2,0.00093,0.00150,55.0,53.0,48,91,0,0.0,8.18,0.00,0.00
15min,AgWx,bigpiney,439,06AUG2020:06:45:00,60.2,12.75,59.5,59.6,59.3,59.8,58.7,61,63,60,1.052,46.0,46.7,45.3,12.21,9.7,317,9.5,12.7,0.00119,0.00184,54.9,52.9,48,146,0,0.0,8.18,0.00,0.00
15min,AgWx,bigpiney,439,06AUG2020:07:00:00,60.8,12.77,59.7,59.7,59.5,59.7,59.2,61,63,60,1.063,46.0,46.5,45.6,6.752,9.2,310,10,13.7,0.00122,0.00186,54.9,52.9,48,107,0,0.0,8.18,0.00,0.00
15min,AgWx,bigpiney,439,06AUG2020:07:15:00,61.4,12.74,60.0,60.1,60.2,60.6,59.7,60,62,58,1.085,46.3,46.7,45.6,5.744,7.4,313,16,11.2,0.00120,0.00176,54.8,52.9,48,109,0,0.0,8.18,0.00,0.00
15min,AgWx,bigpiney,439,06AUG2020:07:30:00,61.7,12.92,62.7,62.2,60.6,62.2,60.1,59,61,57,1.093,46.3,47.4,45.5,6.555,6.5,316,11,10.0,0.00148,0.00201,54.8,53.0,48,191,0,0.0,8.18,0.00,0.00
15min,AgWx,bigpiney,439,06AUG2020:07:45:00,62.5,13.32,65.0,64.6,63.2,64.6,62.2,54,58,52,1.097,46.4,47.7,45.4,5.744,8.6,311,10,12.0,0.00251,0.00332,54.8,52.9,48,379,0,0.0,8.18,0.00,0.00
15min,AgWx,bigpiney,439,06AUG2020:08:00:00,64.2,13.43,66.4,66.7,65.9,67.0,64.7,48,54,45,1.015,45.9,47.6,44.3,7.782,7.4,331,13,10.1,0.00332,0.00421,54.7,52.9,48,495,0,0.0,8.18,0.00,0.00
15min,AgWx,bigpiney,439,06AUG2020:08:15:00,66.4,13.51,66.7,66.6,66.7,67.1,66.4,46,50,44,1.057,45.6,47.6,44.4,5.174,6.5,333,11,9.5,0.00322,0.00407,54.7,52.9,48,475,0,0.0,8.18,0.00,0.00
15min,AgWx,bigpiney,439,06AUG2020:08:30:00,68.4,13.73,68.0,67.6,67.1,67.8,66.5,47,50,45,1.065,46.1,47.5,45.2,5.152,4.7,343,22,7.3,0.00336,0.00407,54.7,52.9,48,515,0,0.0,8.18,0.00,0.00
15min,AgWx,bigpiney,439,06AUG2020:08:45:00,70.3,14.22,66.6,67.4,67.4,67.9,66.8,45,47,43,0.996,45.2,47.1,43.9,2.718,2.6,22,27,7.0,0.00354,0.00407,54.7,52.9,48,561,0,0.0,8.18,0.00,0.00